Mount Sterling, KY

4:46 PM EDT on October 21, 2019 (GMT -0400)
Mount Sterling-Montgomery County

Weather History for KIOB - August, 2019

Change the Weather History Date:

Monday, August 26, 2019

  Actual Average Record
Temperature  
Mean Temperature 68 °F -  
Max Temperature 71 °F 84 °F 89 °F (2016)
Min Temperature 66 °F 63 °F 51 °F (2017)
Cooling Degree Days 4    
Growing Degree Days 18 (Base 50)    
Moisture  
Dew Point 67 °F    
Average Humidity 93    
Maximum Humidity 100    
Minimum Humidity 73    
Precipitation  
Precipitation 0.91 in - - ()
Sea Level Pressure  
Sea Level Pressure 30.01 in    
Wind  
Wind Speed 6 mph (South)    
Max Wind Speed 10 mph    
Max Gust Speed -    
Visibility 9 miles    
Events Rain    
Averages and records for this station are not official NWS values.
T = Trace of Precipitation, MM = Missing Value Source: NWS Daily Summary

Daily Weather History Graph

Daily Weather History Graph

Search for Another Location

Airport or City:

Astronomy

Aug. 26, 2019 Rise Set
Actual Time 7:00 AM EDT 8:14 PM EDT
Civil Twilight 6:33 AM EDT 8:41 PM EDT
Nautical Twilight 6:00 AM EDT 9:14 PM EDT
Astronomical Twilight 5:26 AM EDT 9:48 PM EDT
Moon 2:28 AM EDT (8/26) 5:33 PM EDT (8/26)
Length of Visible Light 14h 08m
Length of Day
13h 14m
Waning Crescent, 19% of the Moon is Illuminated
Aug 26
Waning Crescent
Aug 30
New
Sep 5
First Quarter
Sep 14
Full
Sep 21
Last Quarter

Hourly Weather History & Observations

Time (EDT) Temp. Dew Point Humidity Pressure Visibility Wind Dir Wind Speed Gust Speed Precip Events Conditions
12:15 AM 71.6 °F 62.6 °F 73% 30.05 in 10.0 mi SE 5.8 mph - N/A   Overcast
12:35 AM 71.6 °F 62.6 °F 73% 30.05 in 10.0 mi SE 3.5 mph - N/A   Overcast
12:55 AM 71.6 °F 62.6 °F 73% 30.05 in 10.0 mi SSE 4.6 mph - N/A   Overcast
1:35 AM 69.8 °F 64.4 °F 83% 30.03 in 7.0 mi SSE 3.5 mph - 0.01 in   Overcast
1:55 AM 69.8 °F 66.2 °F 88% 30.03 in 10.0 mi SSE 4.6 mph - 0.01 in   Overcast
2:15 AM 69.8 °F 68.0 °F 94% 30.03 in 10.0 mi SE 3.5 mph - N/A   Overcast
2:35 AM 69.8 °F 68.0 °F 94% 30.03 in 10.0 mi SE 4.6 mph - N/A   Overcast
2:55 AM 69.8 °F 68.0 °F 94% 30.02 in 10.0 mi SE 4.6 mph - N/A   Overcast
3:15 AM 69.8 °F 68.0 °F 94% 30.02 in 10.0 mi SE 4.6 mph - N/A   Overcast
3:35 AM 69.8 °F 68.0 °F 94% 30.02 in 10.0 mi SSE 5.8 mph - N/A   Overcast
3:55 AM 69.8 °F 68.0 °F 94% 30.02 in 10.0 mi SSE 5.8 mph - N/A   Overcast
4:15 AM 71.6 °F 64.4 °F 78% 30.02 in 10.0 mi South 8.1 mph - N/A   Overcast
4:35 AM 71.6 °F 64.4 °F 78% 30.02 in 10.0 mi South 5.8 mph - N/A   Overcast
4:55 AM 69.8 °F 64.4 °F 83% 30.02 in 10.0 mi South 4.6 mph - N/A   Drizzle
5:15 AM 68.0 °F 66.2 °F 94% 30.02 in 10.0 mi South 4.6 mph - 0.01 in Rain Light Rain
5:35 AM 68.0 °F 66.2 °F 94% 30.03 in 7.0 mi South 4.6 mph - 0.04 in Rain Light Rain
5:55 AM 68.0 °F 66.2 °F 94% 30.03 in 2.5 mi South 6.9 mph - 0.25 in Rain Heavy Rain
6:15 AM 68.0 °F 66.2 °F 94% 30.02 in 7.0 mi SSE 5.8 mph - 0.06 in Rain Light Rain
6:35 AM 66.2 °F 66.2 °F 100% 30.03 in 4.0 mi South 5.8 mph - 0.17 in Rain Heavy Rain
6:55 AM 66.2 °F 66.2 °F 100% 30.03 in 7.0 mi South 5.8 mph - 0.21 in Rain Rain
7:15 AM 66.2 °F 66.2 °F 100% 30.03 in 10.0 mi South 5.8 mph - 0.01 in Rain Light Rain
7:55 AM 66.2 °F 64.4 °F 94% 30.04 in 10.0 mi SSE 4.6 mph - 0.04 in Rain Rain
8:15 AM 66.2 °F 64.4 °F 94% 30.04 in 10.0 mi South 5.8 mph - N/A Rain Rain
8:35 AM 66.2 °F 64.4 °F 94% 30.04 in 10.0 mi South 5.8 mph - N/A   Light Drizzle
8:55 AM 66.2 °F 64.4 °F 94% 30.04 in 10.0 mi South 5.8 mph - N/A   Overcast
9:15 AM 66.2 °F 64.4 °F 94% 30.05 in 7.0 mi South 5.8 mph - N/A   Drizzle
9:35 AM 66.2 °F 64.4 °F 94% 30.04 in 7.0 mi SSE 5.8 mph - N/A   Light Drizzle
9:55 AM 66.2 °F 64.4 °F 94% 30.04 in 10.0 mi SSE 4.6 mph - N/A   Overcast
10:15 AM 68.0 °F 64.4 °F 88% 30.04 in 10.0 mi SSE 6.9 mph - N/A   Overcast
10:35 AM 68.0 °F 64.4 °F 88% 30.04 in 10.0 mi SSE 8.1 mph - N/A   Overcast
10:55 AM 68.0 °F 64.4 °F 88% 30.04 in 10.0 mi SSE 8.1 mph - N/A   Overcast
11:15 AM 69.8 °F 64.4 °F 83% 30.04 in 10.0 mi South 10.4 mph - N/A   Overcast
11:35 AM 69.8 °F 64.4 °F 83% 30.04 in 10.0 mi SSE 8.1 mph - N/A   Overcast
11:55 AM 69.8 °F 64.4 °F 83% 30.04 in 10.0 mi South 6.9 mph - N/A Rain Rain
12:15 PM 69.8 °F 66.2 °F 88% 30.04 in 10.0 mi South 8.1 mph - N/A Rain Rain
12:35 PM 69.8 °F 66.2 °F 88% 30.03 in 10.0 mi South 8.1 mph - N/A   Drizzle
12:55 PM 69.8 °F 66.2 °F 88% 30.03 in 10.0 mi South 8.1 mph - 0.01 in Rain Light Rain
1:15 PM 69.8 °F 68.0 °F 94% 30.03 in 10.0 mi South 4.6 mph - N/A   Drizzle
1:35 PM 69.8 °F 68.0 °F 94% 30.03 in 7.0 mi South 8.1 mph - 0.01 in Rain Light Rain
1:55 PM 69.8 °F 68.0 °F 94% 30.02 in 10.0 mi South 5.8 mph - 0.01 in   Drizzle
2:15 PM 69.8 °F 68.0 °F 94% 30.02 in 10.0 mi South 9.2 mph - N/A   Drizzle
2:35 PM 69.8 °F 68.0 °F 94% 30.01 in 7.0 mi South 8.1 mph - 0.01 in   Drizzle
2:55 PM 69.8 °F 68.0 °F 94% 30.01 in 10.0 mi South 5.8 mph - 0.01 in   Drizzle
3:15 PM 69.8 °F 68.0 °F 94% 30.01 in 10.0 mi South 6.9 mph - 0.01 in Rain Rain
3:35 PM 69.8 °F 68.0 °F 94% 30.00 in 10.0 mi South 9.2 mph - 0.03 in Rain Light Rain
3:55 PM 69.8 °F 68.0 °F 94% 30.00 in 10.0 mi South 10.4 mph - 0.03 in Rain Light Rain
4:15 PM 69.8 °F 68.0 °F 94% 29.99 in 10.0 mi SSW 6.9 mph - N/A   Drizzle
4:35 PM 69.8 °F 68.0 °F 94% 29.99 in 10.0 mi South 8.1 mph - N/A Rain Rain
4:55 PM 69.8 °F 68.0 °F 94% 29.99 in 5.0 mi South 9.2 mph - 0.02 in Rain Light Rain
5:15 PM 68.0 °F 68.0 °F 100% 29.98 in 4.0 mi South 10.4 mph - 0.03 in Rain Rain
5:35 PM 68.0 °F 68.0 °F 100% 29.98 in 4.0 mi South 8.1 mph - 0.09 in Rain Rain
5:55 PM 68.0 °F 68.0 °F 100% 29.98 in 5.0 mi South 8.1 mph - 0.15 in Rain Light Rain
6:15 PM 68.0 °F 68.0 °F 100% 29.98 in 5.0 mi South 5.8 mph - N/A   Drizzle
6:35 PM 68.0 °F 68.0 °F 100% 29.98 in 4.0 mi South 9.2 mph - 0.08 in Rain Rain
6:55 PM 68.0 °F 68.0 °F 100% 29.97 in 5.0 mi South 8.1 mph - 0.14 in Rain Rain
7:15 PM 68.0 °F 68.0 °F 100% 29.97 in 5.0 mi South 9.2 mph - 0.01 in   Drizzle
7:35 PM 68.0 °F 68.0 °F 100% 29.97 in 7.0 mi South 9.2 mph - 0.01 in Rain Light Rain
8:15 PM 68.0 °F 68.0 °F 100% 29.97 in 7.0 mi South 10.4 mph - N/A   Drizzle
8:35 PM 68.0 °F 66.2 °F 94% 29.97 in 7.0 mi South 10.4 mph - N/A   Overcast
8:55 PM 68.0 °F 66.2 °F 94% 29.98 in 10.0 mi South 6.9 mph - 0.01 in Rain Light Rain
9:15 PM 68.0 °F 68.0 °F 100% 29.98 in 10.0 mi South 8.1 mph - N/A   Overcast
9:35 PM 68.0 °F 68.0 °F 100% 29.98 in 10.0 mi South 9.2 mph - N/A   Drizzle
9:55 PM 68.0 °F 68.0 °F 100% 29.98 in 10.0 mi South 8.1 mph - N/A   Overcast
10:15 PM 68.0 °F 68.0 °F 100% 29.98 in 7.0 mi South 6.9 mph - N/A   Overcast
10:35 PM 68.0 °F 68.0 °F 100% 29.98 in 10.0 mi South 6.9 mph - N/A   Overcast
10:55 PM 68.0 °F 68.0 °F 100% 29.98 in 10.0 mi South 6.9 mph - N/A   Overcast
11:15 PM 68.0 °F 68.0 °F 100% 29.98 in 10.0 mi South 8.1 mph - N/A   Overcast
11:35 PM 68.0 °F 68.0 °F 100% 29.97 in 10.0 mi South 8.1 mph - N/A   Overcast
11:55 PM 68.0 °F 68.0 °F 100% 29.97 in 7.0 mi SSW 6.9 mph - 0.01 in   Light Drizzle